阿斯特拉 1P星 (ASTRA 1P)

导读

ASTRA 1P(又名SES 24)是由全球卫星运营商SES部署的一颗地球静止轨道通信卫星,由泰雷兹集团采用Spacebus NEO平台建造,发射质量5000千克,设计寿命超15年。该卫星于2024年6月20日由猎鹰9号火箭从卡纳维拉尔角发射升空,定点于东经19度轨道位置,携带Ku波段有效载荷,主要面向欧洲地区提供广播电视分发和宽带通信服务,目前已正式投入运营服役。

基本信息
目录编号:
60086
目录名称:
ASTRA 1P (SES 24)
国际标识:
2024-115A
轨道中心:
EARTH
卫星名称:
阿斯特拉 1P星
卫星全名:
阿斯特拉 1P星 (ASTRA 1P)
卫星状态:
在轨 (已飞行722 天)
发射日期:
2024-06-20 UTC
国别 :
(SES)
星等 :
--
轨道信息
数据来源 国际轨道数据 AOE轨道数据
星历时间 2026-06-12T04:10:51+0800
1天前
查看轨道信息
2026-06-10T12:00:00+0800
2天前
查看轨道信息
半长轴 42166.382km 42164.364km
偏心率 0.0001081 0.0000652
轨道倾角 0.059° 0.056°
近地点辐角 356.707° 308.288°
升交点赤经 2.249° 9.614°
平近点角 223.141° 19.840°
近地点 35783.686km 35783.477km
远地点 35792.804km 35788.977km
周期 1436.181分钟 1436.078分钟
每日圈数 1.002659 1.002731
详细信息
卫星平台:
Spacebus NEO 200
平衡模式:
三轴稳定
覆盖范围:
全球
运营商:
欧洲卫星公司
运营商所在国:
卢森堡
制造商(研发单位):
阿莱尼亚宇航公司
制造商所在国:
意大利
使用方式:
暂无
卫星简介
阿斯特拉卫星是由SES阿斯特拉运营的商业通信卫星,主要提供电视直播到户业务。Astra卫星包括三个系列共19颗卫星,分别定点在三个不同轨位:Astra-1系列包括十三颗卫星,定点东经19.2度;Astra-2系列包括4颗卫星,定点东经28.2度;Astra-3系列包括2颗卫星,定点东经23.5度。该卫星仍在工作。
2D轨道图
3D轨道图
轨道高度分析图
轨道倾角分析图
轨道综合分析图
查看轨道综合分析图